Flag for Canada Weather past 2 weeks in Whistler, British Columbia, Canada

Now
37 °F

Chilly.


Feels Like: 37 °F
Forecast: 19 / 43 °F
Wind: 1 mph from East

Location: Squamish Airport

Current Time: Mar 3, 2015 at 7:49:10 PM

Latest Report: Mar 3, 2015 at 7:00 PM


Visibility: N/A

Pressure: 30.22 "Hg

Humidity: 64%

Dew point: 26 °F

Location of WhistlerLocation

Historic Weather in Whistler — Graph

°F

Whistler temperature yesterday

Maximum temperature yesterday: 56 °F (at 3:00 PM)
Minimum temperature yesterday: 27 °F (at 7:00 AM)
Average temperature yesterday: 41 °F

Past Weeks' High & Low Weather Summary

 TemperatureHumidityPressure
High60 °F (Feb 21, 2:00 PM)100% (Feb 17, 7:00 AM)30.52 "Hg (Feb 17, 7:00 AM)
Low27 °F (Mar 2, 7:00 AM)14% (Mar 2, 2:00 PM)29.79 "Hg (Feb 27, 7:00 AM)
Average41 °F75%30.23 "Hg
* Reported Feb 16 6:00 PM — Mar 3 6:00 PM, Whistler, Weather by CustomWeather, © 2015

Note: Actual official high and low records may vary slightly from our data, if they occured in-between our weather recording intervals... More about our weather records

Advertising

Whistler weather history for previous 24 hours

 ConditionsComfort  
Time TempWeatherWind HumidityBarometerVisibility
6:00 PM
Tue, Mar 3
44 °FQuite cool.3 mph37%30.20 "HgN/A
5:00 PM46 °FCool.5 mph33%30.20 "HgN/A
4:00 PM47 °FCool.7 mph27%30.20 "HgN/A
3:00 PM52 °FCool.6 mph22%30.20 "HgN/A
2:00 PM51 °FCool.2 mph18%30.21 "HgN/A
1:00 PM49 °FCool.2 mph19%30.23 "HgN/A
12:00 PM47 °FCool.3 mph19%30.26 "HgN/A
11:00 AM44 °FQuite cool.2 mph25%30.27 "HgN/A
10:00 AM42 °FQuite cool.2 mph29%30.28 "HgN/A
9:00 AM39 °FChilly.1 mph35%30.29 "HgN/A
8:00 AM30 °FChilly.2 mph62%30.28 "HgN/A
7:00 AM31 °FChilly.1 mph51%30.27 "HgN/A
6:00 AM33 °FChilly.6 mph48%30.28 "HgN/A
5:00 AM36 °FChilly.3 mph39%30.27 "HgN/A
4:00 AM38 °FChilly.5 mph31%30.27 "HgN/A
3:00 AM37 °FChilly.8 mph40%30.27 "HgN/A
2:00 AM38 °FChilly.7 mph37%30.27 "HgN/A
1:00 AM40 °FChilly.9 mph32%30.25 "HgN/A
12:00 AM41 °FQuite cool.7 mph28%30.24 "HgN/A
11:00 PM
Mon, Mar 2
44 °FQuite cool.9 mph23%30.23 "HgN/A
10:00 PM44 °FQuite cool.7 mph24%30.22 "HgN/A
9:00 PM45 °FCool.12 mph22%30.17 "HgN/A
8:00 PM47 °FCool.10 mph20%30.16 "HgN/A
7:00 PM48 °FCool.8 mph19%30.13 "HgN/A
Weather by CustomWeather, © 2015

See weather overviewHow to use our weather pages